TimeEDT,TemperatureF,Dew PointF,Humidity,Sea Level PressureIn,VisibilityMPH,Wind Direction,Wind SpeedMPH,Gust SpeedMPH,PrecipitationIn,Events,Conditions,WindDirDegrees,DateUTC
12:52 AM,35.1,28.0,76,30.15,10.0,Calm,Calm,-,N/A,,Clear,0,2011-10-30 04:52:00
1:52 AM,35.1,28.0,76,30.16,10.0,Calm,Calm,-,N/A,,Clear,0,2011-10-30 05:52:00
2:52 AM,34.0,28.0,79,30.16,10.0,Calm,Calm,-,N/A,,Clear,0,2011-10-30 06:52:00
3:52 AM,30.2,28.4,93,30.17,9.0,Calm,Calm,-,N/A,,Clear,0,2011-10-30 07:52:00
4:52 AM,30.0,28.9,96,30.19,8.0,Calm,Calm,-,N/A,,Clear,0,2011-10-30 08:52:00
5:52 AM,32.0,28.0,85,30.20,9.0,Calm,Calm,-,N/A,,Clear,0,2011-10-30 09:52:00
6:52 AM,32.0,28.9,88,30.22,10.0,Calm,Calm,-,N/A,,Clear,0,2011-10-30 10:52:00
7:52 AM,28.0,26.1,92,30.24,10.0,Calm,Calm,-,N/A,,Clear,0,2011-10-30 11:52:00
8:52 AM,30.9,28.0,89,30.26,8.0,Calm,Calm,-,N/A,,Scattered Clouds,0,2011-10-30 12:52:00
9:52 AM,39.9,34.0,79,30.27,7.0,ESE,3.5,-,N/A,,Mostly Cloudy,120,2011-10-30 13:52:00
10:52 AM,48.0,36.0,63,30.27,9.0,South,9.2,-,N/A,,Mostly Cloudy,170,2011-10-30 14:52:00
11:52 AM,52.0,33.1,49,30.26,10.0,South,11.5,-,N/A,,Scattered Clouds,180,2011-10-30 15:52:00
12:52 PM,53.1,30.0,41,30.25,10.0,South,10.4,-,N/A,,Scattered Clouds,190,2011-10-30 16:52:00
1:52 PM,55.0,28.9,37,30.22,10.0,SSW,6.9,-,N/A,,Scattered Clouds,200,2011-10-30 17:52:00
2:52 PM,57.0,28.9,34,30.19,10.0,Variable,6.9,-,N/A,,Scattered Clouds,0,2011-10-30 18:52:00
3:52 PM,57.0,27.0,32,30.17,10.0,SSW,9.2,-,N/A,,Partly Cloudy,210,2011-10-30 19:52:00
4:52 PM,55.9,30.0,37,30.16,10.0,South,11.5,-,N/A,,Scattered Clouds,180,2011-10-30 20:52:00
5:52 PM,54.0,30.9,41,30.14,10.0,South,11.5,-,N/A,,Scattered Clouds,170,2011-10-30 21:52:00
6:52 PM,48.0,30.0,50,30.15,10.0,SSE,6.9,-,N/A,,Scattered Clouds,150,2011-10-30 22:52:00
7:52 PM,46.0,30.9,56,30.16,10.0,SSE,9.2,-,N/A,,Scattered Clouds,150,2011-10-30 23:52:00
8:52 PM,48.0,30.9,52,30.16,10.0,SSE,10.4,-,N/A,,Mostly Cloudy,150,2011-10-31 00:52:00
9:52 PM,48.9,30.9,50,30.15,10.0,SSE,9.2,-,N/A,,Mostly Cloudy,160,2011-10-31 01:52:00
10:52 PM,48.0,30.0,50,30.14,10.0,SSE,9.2,-,N/A,,Scattered Clouds,160,2011-10-31 02:52:00